Park Rapids, MN

5:54 PM CDT on October 18, 2017 (GMT -0500)
Park Rapids Municipal

Weather History for KPKD - October, 2011

Change the Weather History Date:

Wednesday, October 26, 2011

  Actual Average Record
Temperature  
Mean Temperature 40 °F -  
Max Temperature 48 °F 53 °F 76 °F (1989)
Min Temperature 30 °F 31 °F 13 °F (1976)
Degree Days  
Heating Degree Days 26    
Moisture  
Dew Point 34 °F    
Average Humidity 84    
Maximum Humidity 100    
Minimum Humidity 56    
Precipitation  
Precipitation 0.02 in - - ()
Sea Level Pressure  
Sea Level Pressure 30.09 in    
Wind  
Wind Speed 2 mph (West)    
Max Wind Speed 6 mph    
Max Gust Speed -    
Visibility 10 miles    
Events Rain    
Averages and records for this station are not official NWS values.
T = Trace of Precipitation, MM = Missing Value Source: NWS Daily Summary

Daily Weather History Graph

Daily Weather History Graph

Search for Another Location

Airport or City:

Trip Planner

Search our weather history database for the weather conditions in past years. The results will help you decide how hot, cold, wet, or windy it might be!

Date:

Astronomy

Oct. 26, 2011 Rise Set
Actual Time 7:53 AM CDT 6:14 PM CDT
Civil Twilight 7:22 AM CDT 6:45 PM CDT
Nautical Twilight 6:46 AM CDT 7:20 PM CDT
Astronomical Twilight 6:11 AM CDT 7:56 PM CDT
Moon 7:45 AM CDT (10/26) 5:52 PM CDT (10/26)
Length of Visible Light 11h 23m
Length of Day
10h 20m
Waning Crescent, 0% of the Moon is Illuminated
Oct 26
Waning Crescent
Oct 26
New
Nov 2
First Quarter
Nov 10
Full
Nov 18
Last Quarter

Hourly Weather History & Observations

Time (CDT) Temp. Windchill Dew Point Humidity Pressure Visibility Wind Dir Wind Speed Gust Speed Precip Events Conditions
12:53 AM 37.9 °F 35.5 °F 34.0 °F 86% 30.09 in 10.0 mi SE 3.5 mph - N/A   Overcast
1:53 AM 37.9 °F - 35.1 °F 89% 30.09 in 10.0 mi Calm Calm - N/A   Overcast
2:53 AM 37.0 °F - 34.0 °F 89% 30.09 in 10.0 mi Calm Calm - N/A   Overcast
3:53 AM 37.9 °F - 35.1 °F 89% 30.09 in 10.0 mi Calm Calm - N/A   Overcast
4:53 AM 36.0 °F - 34.0 °F 93% 30.09 in 10.0 mi Calm Calm - N/A   Overcast
5:53 AM 33.8 °F - 33.8 °F 100% 30.06 in 9.0 mi Calm Calm - N/A   Overcast
6:03 AM 33.8 °F 30.8 °F 33.8 °F 100% 30.06 in 9.0 mi West 3.5 mph - N/A   Overcast
6:18 AM 37.4 °F - 33.8 °F 87% 30.07 in 10.0 mi Calm Calm - N/A   Overcast
6:50 AM 39.2 °F - 35.6 °F 87% 30.07 in 10.0 mi Calm Calm - N/A   Overcast
6:53 AM 39.2 °F - 35.6 °F 87% 30.07 in 10.0 mi Calm Calm - N/A Rain Light Rain
7:03 AM 39.2 °F - 35.6 °F 87% 30.07 in 10.0 mi Calm Calm - 0.00 in   Overcast
7:28 AM 37.4 °F 32.8 °F 35.6 °F 93% 30.08 in 10.0 mi West 5.8 mph - 0.00 in   Overcast
7:53 AM 37.0 °F 34.5 °F 36.0 °F 96% 30.12 in 10.0 mi WNW 3.5 mph - 0.00 in   Overcast
8:53 AM 37.0 °F 34.5 °F 36.0 °F 96% 30.13 in 10.0 mi NW 3.5 mph - N/A   Overcast
9:53 AM 39.2 °F 35.9 °F 35.6 °F 87% 30.09 in 10.0 mi NW 4.6 mph - N/A   Mostly Cloudy
10:53 AM 41.0 °F 39.0 °F 35.1 °F 79% 30.15 in 10.0 mi Variable 3.5 mph - N/A   Partly Cloudy
11:53 AM 46.0 °F 44.8 °F 34.0 °F 63% 30.14 in 10.0 mi WSW 3.5 mph - N/A   Partly Cloudy
12:53 PM 46.9 °F - 32.0 °F 56% 30.13 in 10.0 mi Variable 4.6 mph - N/A   Scattered Clouds
1:53 PM 46.0 °F 44.8 °F 30.9 °F 56% 30.11 in 10.0 mi NNW 3.5 mph - N/A   Overcast
2:53 PM 43.0 °F 40.3 °F 32.0 °F 65% 30.10 in 10.0 mi SW 4.6 mph - 0.01 in Rain Light Rain
3:53 PM 44.1 °F - 35.1 °F 71% 30.08 in 10.0 mi Calm Calm - 0.01 in   Overcast
4:53 PM 41.0 °F 39.0 °F 35.1 °F 79% 30.07 in 10.0 mi West 3.5 mph - N/A   Clear
5:53 PM 43.0 °F - 35.1 °F 74% 30.07 in 10.0 mi Calm Calm - N/A   Mostly Cloudy
6:53 PM 39.9 °F 37.8 °F 35.1 °F 83% 30.08 in 10.0 mi North 3.5 mph - 0.00 in   Overcast
7:53 PM 37.0 °F 33.3 °F 32.0 °F 82% 30.08 in 10.0 mi WSW 4.6 mph - N/A   Mostly Cloudy
8:53 PM 35.1 °F 31.0 °F 32.0 °F 89% 30.07 in 10.0 mi SSW 4.6 mph - N/A   Mostly Cloudy
9:53 PM 33.1 °F 30.0 °F 30.9 °F 92% 30.07 in 10.0 mi WSW 3.5 mph - N/A   Clear
10:53 PM 34.0 °F - 30.9 °F 89% 30.07 in 10.0 mi Calm Calm - N/A   Partly Cloudy
11:53 PM 30.0 °F - 28.9 °F 96% 30.06 in 7.0 mi Calm Calm - N/A   Partly Cloudy